Regional Weather Roundup
Issued by NWS Midland/Odessa, TX

Skip options and go directly to product.
Home | Oldest Version | Previous Version | Current Version | All | Text Only | Save Text | Print | Product List | Glossary On

Skip product version selection by date and time.   
172
ASUS44 KMAF 191610
RWRMAF
MIDLAND AREA WEATHER ROUNDUP
NATIONAL WEATHER SERVICE MIDLAND TX
1000 AM CST FRI DEC 19 2014

...IN SOUTHWEST TEXAS AND SOUTHEAST NEW MEXICO...

CITY           SKY/WX    TMP DP  RH WIND       PRES   REMARKS
ALPINE         SUNNY     51  32  48 SW3       30.24R
ANDREWS        CLOUDY    39  39 100 CALM      30.18S FOG
ARTESIA        SUNNY     46  32  57 VRB6      30.18R
BIG SPRING     CLOUDY    42  39  89 NE5       30.22R WCI  39
CARLSBAD       SUNNY     46  35  65 E3        30.17R
DRYDEN           N/A     55  42  61 N10       30.15R
FORT STOCKTON  SUNNY     50  35  56 SW7       30.18R
GUAD PASS      FOG       36  36 100 SW14G24   30.18R VSB 1/4 WCI  27
HOBBS          FOG       36  36 100 CALM      30.18R VSB 3/8
MARFA          SUNNY     48  30  49 W7        30.21R
MIDLAND AIRPK  CLOUDY    42  39  89 CALM      30.20R
MIDLAND INTL   CLOUDY    42  39  89 E3        30.19R FOG
ODESSA         CLOUDY    40  38  93 NE5       30.19R FOG     WCI  37
PECOS          SUNNY     46  38  73 NW3       30.19R
PRESIDIO       FAIR      51  35  54 CALM      30.20R
SEMINOLE       CLOUDY    37  37 100 CALM      30.20R FOG
SNYDER         CLOUDY    40  36  87 CALM      30.20R
WINK           MOSUNNY   41  35  79 NE6       30.18R WCI  37
$$
...OTHER STATIONS IN TEXAS...

CITY           SKY/WX    TMP DP  RH WIND       PRES   REMARKS
ABILENE        CLOUDY    44  41  89 NE5       30.20R
AMARILLO       FOG       37  36  96 SE6       30.18R VSB 1/4 WCI  32
AUSTIN         CLOUDY    51  51 100 N14       30.13R
BROWNSVILLE    CLOUDY    71  67  87 W5        30.01R
CORPUS CHRISTI LGT RAIN  58  55  90 N21       30.04R
DALLAS FTW     CLOUDY    46  44  93 N13       30.20R FOG
DEL RIO        CLOUDY    59  52  77 N12       30.12R
EL PASO        MOSUNNY   42  38  85 SE5       30.20R WCI  39
HOUSTON INT    RAIN      57  56  96 N14       30.08R FOG
LUBBOCK        FOG       37  37 100 S10       30.17R VSB 1/8 WCI  30
SAN ANGELO     CLOUDY    46  43  89 NE7       30.18R
SAN ANTONIO    PTSUNNY   56  49  77 N14G24    30.11R
WACO           CLOUDY    48  46  93 N10       30.18R FOG
WICHITA FALLS  NOT AVBL
$$
...OTHER LOCATIONS IN NEW MEXICO...

CITY           SKY/WX    TMP DP  RH WIND       PRES   REMARKS
ALAMAGORDO     MOSUNNY   41  37  87 N13       30.21R WCI  34
ALBUQUERQUE    MOSUNNY   37  25  61 NW9       30.24R WCI  30
CANNON AFB     CLOUDY    37  32  82 VRB5      30.14R WCI  33
CLOVIS         CLOUDY    36  34  93 S5        30.15R WCI  32
HOLLOMAN AFB   MOSUNNY   39  39 100 N10       30.21R WCI  33
ROSWELL        SUNNY     42  30  62 NE3       30.18R
RUIDOSO        SUNNY     32  23  69 NW13      30.20R WCI  22
SANTA FE       SUNNY     30  22  72 N15       30.18R WCI  19
TRUTH OR CONSE SUNNY     38  28  67 N6        30.23R WCI  33
TUCUMCARI      CLOUDY    36  30  79 N6        30.15R WCI  31
$$

USA.gov is the U.S. government's official web portal to all federal, state and local government web resources and services.